�N����,����,�~����,�C��,���x,�C��,����,���ϕ���,�ő�u�ԕ���,�ő厞����,���˗�,�I�_���x,�n�����x,�ő啗���N��,DTYPE
"22/08/18","00:10",0.4,23.7,96.0,1002.6,283.2,1.1,2.6,239.2,0.00,23.1,25.7,"00:07:12",1
"22/08/18","00:20",2.4,23.6,96.0,1001.9,179.3,0.6,1.3,240.2,0.00,23.0,25.8,"00:10:16",1
"22/08/18","00:30",2.4,23.7,96.2,1001.9,13.3,1.1,2.5,23.2,0.00,23.1,25.5,"00:23:20",1
"22/08/18","00:40",0.2,23.8,96.1,1002.4,231.3,1.5,2.6,234.7,0.00,23.2,25.4,"00:32:40",1
"22/08/18","00:50",0.6,23.8,96.1,1002.4,325.4,0.6,1.3,327.7,0.00,23.2,25.1,"00:41:04",1
"22/08/18","01:00",0.4,23.8,96.2,1002.2,226.4,0.6,1.4,216.9,0.00,23.2,25.5,"00:58:56",1
"22/08/18","01:10",0.6,23.9,96.2,1001.9,31.0,0.6,1.2,354.9,0.00,23.3,25.5,"01:04:00",1
"22/08/18","01:20",0.0,23.9,96.2,1001.9,3.5,0.3,0.8,47.4,0.00,23.3,25.4,"01:15:12",1
"22/08/18","01:30",0.0,23.9,96.2,1001.9,18.1,0.3,1.1,355.7,0.00,23.3,25.4,"01:28:24",1
"22/08/18","01:40",0.2,23.8,96.2,1001.9,292.9,0.3,0.9,344.3,0.00,23.2,25.5,"01:30:24",1
"22/08/18","01:50",0.6,23.9,96.3,1001.7,283.9,0.6,1.7,241.5,0.00,23.3,25.2,"01:45:12",1
"22/08/18","02:00",0.2,23.9,96.4,1001.5,317.7,0.5,1.1,241.9,0.00,23.3,25.4,"01:59:52",1
"22/08/18","02:10",0.4,24.0,96.4,1000.8,245.3,0.5,1.1,240.6,0.00,23.4,25.5,"02:00:16",1
"22/08/18","02:20",0.0,23.9,96.4,1000.8,1.0,0.1,0.6,352.1,0.00,23.3,25.4,"02:10:08",1
"22/08/18","02:30",0.0,24.0,96.4,1000.8,356.7,0.3,1.1,346.5,0.00,23.4,25.2,"02:29:36",1
"22/08/18","02:40",1.8,24.0,96.4,1000.3,329.5,0.5,1.1,359.5,0.00,23.4,25.2,"02:35:20",1
"22/08/18","02:50",1.4,24.0,96.5,1000.5,299.5,1.0,2.9,240.0,0.00,23.4,25.2,"02:46:16",1
"22/08/18","03:00",0.2,24.0,96.5,1000.5,236.7,0.7,1.9,232.8,0.00,23.4,25.4,"02:51:20",1
"22/08/18","03:10",0.0,24.0,96.5,1000.5,336.5,0.3,1.1,43.7,0.00,23.4,25.4,"03:00:40",1
"22/08/18","03:20",0.0,24.0,96.5,999.8,0.7,0.7,1.3,5.9,0.00,23.4,25.2,"03:10:48",1
"22/08/18","03:30",0.0,24.0,96.6,999.8,326.3,0.5,1.2,242.0,0.00,23.5,25.2,"03:29:12",1
"22/08/18","03:40",0.0,24.1,96.6,999.6,227.6,0.5,1.0,237.0,0.00,23.6,25.3,"03:30:40",1
"22/08/18","03:50",0.0,24.1,96.6,999.6,261.3,0.6,1.6,237.5,0.00,23.6,25.2,"03:46:24",1
"22/08/18","04:00",0.0,24.1,96.6,999.3,198.5,0.3,1.1,131.1,0.00,23.6,25.3,"03:52:24",1
"22/08/18","04:10",0.0,24.2,96.7,998.9,323.5,0.6,1.6,20.6,0.00,23.7,25.3,"04:07:52",1
"22/08/18","04:20",1.0,24.2,96.7,999.3,328.8,1.1,2.6,318.4,0.00,23.7,25.3,"04:19:04",1
"22/08/18","04:30",3.6,24.3,96.8,999.1,349.3,1.7,2.6,354.0,0.00,23.8,25.0,"04:20:32",1
"22/08/18","04:40",8.0,24.4,96.8,998.9,348.9,1.1,2.2,1.8,0.00,23.9,25.4,"04:34:40",1
"22/08/18","04:50",8.4,24.5,96.8,999.3,142.1,0.7,2.0,202.7,0.00,24.0,25.2,"04:43:12",1
"22/08/18","05:00",0.4,23.4,96.6,1000.0,7.2,2.0,5.1,38.4,0.00,22.9,25.3,"04:57:12",1
"22/08/18","05:10",3.2,22.5,97.1,1000.0,23.2,1.5,3.5,54.0,0.00,22.1,25.2,"05:06:00",1
"22/08/18","05:20",1.0,22.5,97.3,1000.0,123.6,1.0,2.0,26.7,0.00,22.1,25.3,"05:10:08",1
"22/08/18","05:30",0.2,22.4,97.3,1000.0,157.2,1.5,2.9,113.2,0.00,22.0,25.3,"05:28:08",1
"22/08/18","05:40",0.2,22.6,97.3,1000.5,129.5,1.0,2.6,144.9,0.00,22.2,25.3,"05:30:08",1
"22/08/18","05:50",0.0,22.6,97.3,1000.0,41.8,0.5,1.2,127.1,0.00,22.2,25.2,"05:45:20",1
"22/08/18","06:00",0.2,22.6,97.4,1000.0,328.6,1.0,1.6,349.2,0.00,22.2,25.0,"05:52:48",1
"22/08/18","06:10",0.0,22.5,97.3,1000.0,327.9,1.5,3.4,341.3,0.00,22.1,25.2,"06:09:36",1
"22/08/18","06:20",0.0,22.3,97.5,1000.3,325.8,1.1,2.5,331.1,0.00,21.9,25.0,"06:13:28",1
"22/08/18","06:30",0.0,22.6,97.5,1000.5,70.3,0.5,1.2,111.7,0.00,22.2,25.2,"06:26:32",1
"22/08/18","06:40",0.0,22.6,97.4,1001.0,26.1,0.7,2.1,324.3,0.00,22.2,25.2,"06:38:08",1
"22/08/18","06:50",1.4,22.5,97.4,1001.7,279.8,1.1,1.9,353.6,0.00,22.1,25.2,"06:42:08",1
"22/08/18","07:00",1.6,22.3,97.5,1001.5,319.3,1.5,3.3,357.1,0.00,21.9,25.3,"06:54:00",1
"22/08/18","07:10",0.4,22.4,97.5,1001.2,305.0,1.3,2.8,322.5,0.00,22.0,25.2,"07:00:08",1
"22/08/18","07:20",0.0,22.5,97.6,1002.2,305.9,1.2,2.7,313.8,0.00,22.1,25.2,"07:14:16",1
"22/08/18","07:30",0.0,22.5,97.6,1001.9,290.5,1.0,2.1,346.6,0.00,22.1,25.2,"07:20:08",1
"22/08/18","07:40",0.0,22.7,97.5,1002.2,248.6,0.3,0.9,192.1,0.01,22.3,25.1,"07:34:48",1
"22/08/18","07:50",0.0,22.9,97.5,1001.9,119.2,0.6,1.7,230.1,0.02,22.5,25.2,"07:40:48",1
"22/08/18","08:00",0.0,23.1,97.4,1001.9,73.0,0.3,1.1,86.9,0.03,22.7,25.2,"07:53:04",1
"22/08/18","08:10",0.0,23.1,97.4,1001.9,357.9,0.5,1.3,348.6,0.04,22.7,25.0,"08:08:40",1
"22/08/18","08:20",0.0,23.2,97.4,1001.9,75.4,0.6,1.6,3.7,0.05,22.8,25.3,"08:11:52",1
"22/08/18","08:30",0.0,23.5,97.4,1002.2,346.0,0.5,1.6,328.7,0.08,23.1,25.3,"08:29:28",1
"22/08/18","08:40",0.0,23.6,97.2,1002.2,347.8,0.6,1.9,197.0,0.07,23.2,25.2,"08:37:52",1
"22/08/18","08:50",0.0,23.7,96.9,1001.9,174.3,1.0,2.6,212.9,0.14,23.2,25.2,"08:49:52",1
"22/08/18","09:00",0.0,23.4,96.6,1001.9,197.3,1.6,2.9,195.6,0.19,22.9,25.2,"08:59:04",1
"22/08/18","09:10",0.0,23.4,96.5,1002.6,201.3,1.5,2.7,218.4,0.09,22.9,25.1,"09:00:32",1
"22/08/18","09:20",0.0,24.1,96.6,1002.2,187.6,1.1,1.9,188.9,0.14,23.6,25.1,"09:15:04",1
"22/08/18","09:30",0.0,23.9,95.5,1001.5,160.1,1.2,3.1,188.4,0.19,23.2,25.2,"09:29:20",1
"22/08/18","09:40",0.0,25.7,95.6,1001.2,155.5,0.5,1.6,179.7,0.35,25.0,25.3,"09:30:08",1
"22/08/18","09:50",0.0,24.4,95.2,1001.2,41.4,1.0,2.0,26.0,0.17,23.6,25.0,"09:46:48",1
"22/08/18","10:00",0.0,25.4,94.5,1000.8,207.1,0.7,2.4,203.3,0.34,24.5,25.1,"09:54:08",1
"22/08/18","10:10",0.0,25.9,92.9,1000.3,165.4,0.7,1.4,139.4,0.25,24.7,25.1,"10:03:28",1
"22/08/18","10:20",0.0,26.6,91.6,1000.0,149.3,0.6,1.6,198.2,0.32,25.2,25.0,"10:19:52",1
"22/08/18","10:30",0.0,27.3,89.7,1000.5,235.0,0.8,2.1,236.6,0.49,25.5,25.1,"10:23:12",1
"22/08/18","10:40",0.0,27.9,85.1,1000.5,211.7,0.7,1.9,228.6,0.42,25.2,25.2,"10:38:16",1
"22/08/18","10:50",0.0,29.1,79.9,1001.0,148.2,0.8,2.0,129.7,0.55,25.3,25.0,"10:45:20",1
"22/08/18","11:00",0.0,28.3,77.3,1001.5,183.8,1.7,3.1,213.3,0.30,24.0,25.2,"10:58:56",1
"22/08/18","11:10",0.0,27.3,79.0,1001.0,195.9,2.2,4.9,211.2,0.28,23.4,25.0,"11:09:28",1
"22/08/18","11:20",0.0,27.9,78.6,1000.8,185.7,2.0,3.7,220.3,0.39,23.9,24.9,"11:18:00",1
"22/08/18","11:30",0.0,28.4,77.7,1000.8,176.5,1.7,3.5,227.6,0.36,24.2,25.1,"11:26:08",1
"22/08/18","11:40",0.0,27.5,77.7,1000.5,158.9,1.8,3.4,196.8,0.15,23.3,25.2,"11:39:04",1
"22/08/18","11:50",0.0,27.2,78.3,1000.0,207.3,2.0,4.2,178.2,0.17,23.1,25.0,"11:42:48",1
"22/08/18","12:00",0.0,27.5,79.0,999.8,199.7,1.8,3.2,219.9,0.19,23.6,25.3,"11:52:32",1
"22/08/18","12:10",0.0,27.4,78.7,999.8,194.6,1.6,4.0,206.5,0.14,23.4,25.3,"12:00:32",1
"22/08/18","12:20",0.0,27.1,78.7,999.8,199.7,2.1,4.7,214.2,0.13,23.1,25.3,"12:18:24",1
"22/08/18","12:30",0.0,27.0,79.3,1000.3,214.8,2.0,4.5,213.7,0.07,23.1,25.2,"12:23:04",1
"22/08/18","12:40",0.0,27.3,79.9,1000.3,177.2,1.6,3.5,227.7,0.12,23.6,25.3,"12:30:32",1
"22/08/18","12:50",0.0,27.6,78.7,1000.0,186.3,1.8,3.4,191.4,0.16,23.6,25.2,"12:43:44",1
"22/08/18","13:00",0.0,28.4,77.5,999.3,169.3,1.5,3.4,144.6,0.32,24.1,25.2,"12:56:16",1
"22/08/18","13:10",0.0,29.1,75.0,999.8,198.2,1.6,2.9,202.3,0.33,24.3,25.2,"13:04:08",1
"22/08/18","13:20",0.0,30.1,72.6,999.8,215.9,1.5,3.5,235.0,0.59,24.7,25.3,"13:19:04",1
"22/08/18","13:30",0.0,31.0,69.6,1000.5,186.7,1.2,3.9,202.6,0.63,24.8,25.3,"13:28:00",1
"22/08/18","13:40",0.0,30.7,67.6,1001.0,218.4,1.6,3.9,210.2,0.50,24.1,25.3,"13:31:12",1
"22/08/18","13:50",0.0,31.1,65.9,1000.8,278.4,1.2,3.5,343.5,0.58,24.0,25.1,"13:49:20",1
"22/08/18","14:00",0.0,31.1,66.5,1000.3,255.7,2.1,3.9,341.6,0.55,24.2,25.3,"13:51:04",1
"22/08/18","14:10",0.0,31.2,65.3,1000.5,231.9,2.0,4.9,241.3,0.54,24.0,25.4,"14:00:16",1
"22/08/18","14:20",0.0,31.4,63.5,1000.8,218.8,1.6,3.6,222.1,0.52,23.7,25.3,"14:10:40",1
"22/08/18","14:30",0.0,31.8,62.1,1001.2,232.5,1.3,3.6,218.6,0.52,23.7,25.4,"14:26:56",1
"22/08/18","14:40",0.0,32.5,61.4,1001.0,296.4,1.2,3.1,2.3,0.54,24.2,25.6,"14:35:52",1
"22/08/18","14:50",0.0,32.4,60.0,1001.0,257.3,1.1,3.1,247.8,0.51,23.7,25.4,"14:40:16",1
"22/08/18","15:00",0.0,32.2,58.4,1001.5,247.5,1.6,3.6,241.5,0.49,23.0,25.5,"14:56:08",1
"22/08/18","15:10",0.0,32.7,57.4,1001.0,294.4,1.3,4.3,220.9,0.49,23.2,25.8,"15:01:20",1
"22/08/18","15:20",0.0,31.8,57.8,1001.0,297.6,0.8,2.6,287.8,0.19,22.5,25.7,"15:15:44",1
"22/08/18","15:30",0.6,29.1,67.3,1000.0,331.5,2.3,8.6,17.0,0.06,22.5,25.7,"15:26:40",1
"22/08/18","15:40",3.0,26.5,77.7,998.4,3.7,2.0,5.1,17.4,0.05,22.3,25.7,"15:31:28",1
"22/08/18","15:50",2.6,26.5,82.7,998.6,327.7,0.8,2.1,357.4,0.28,23.4,25.6,"15:44:56",1
"22/08/18","16:00",0.4,27.8,83.3,997.9,302.4,0.8,1.7,352.6,0.43,24.7,25.7,"15:53:46",1
"22/08/18","16:10",0.0,27.9,82.7,998.6,326.0,1.2,2.4,352.3,0.13,24.7,25.8,"16:01:44",1
"22/08/18","16:20",0.0,27.8,82.4,998.6,328.7,1.6,3.4,323.4,0.19,24.6,25.7,"16:15:36",1
"22/08/18","16:30",0.0,27.6,83.0,998.6,337.9,1.5,2.6,347.1,0.07,24.5,25.6,"16:22:08",1
"22/08/18","16:40",0.0,27.3,84.0,999.1,326.0,1.7,3.5,347.5,0.08,24.4,25.9,"16:33:04",1
"22/08/18","16:50",0.0,27.1,84.8,999.1,311.5,1.7,3.1,325.6,0.05,24.4,25.7,"16:44:00",1
"22/08/18","17:00",0.0,26.6,85.2,999.6,324.6,2.1,4.0,332.4,0.04,23.9,26.1,"16:59:28",1
"22/08/18","17:10",0.0,26.7,85.4,999.6,328.8,2.2,4.4,344.5,0.06,24.1,25.9,"17:00:56",1
"22/08/18","17:20",0.0,27.5,85.7,999.8,329.7,2.0,4.2,339.8,0.19,24.9,25.8,"17:13:36",1
"22/08/18","17:30",0.0,28.3,83.5,999.3,334.9,1.5,2.6,345.0,0.19,25.3,25.9,"17:28:24",1
"22/08/18","17:40",0.0,28.3,81.7,999.1,317.0,1.3,3.3,335.8,0.06,24.9,25.8,"17:37:44",1
"22/08/18","17:50",0.0,28.5,80.9,999.6,299.5,1.1,2.4,327.2,0.09,24.9,25.9,"17:49:52",1
"22/08/18","18:00",0.0,28.8,79.6,999.3,315.6,1.2,2.6,330.2,0.08,25.0,25.9,"17:58:48",1
"22/08/18","18:10",0.0,28.2,76.6,999.3,338.2,2.1,3.7,335.9,0.05,23.7,26.0,"18:05:12",1
"22/08/18","18:20",0.0,27.8,75.1,1000.0,336.8,2.1,4.0,317.5,0.03,23.0,25.9,"18:16:08",1
"22/08/18","18:30",0.0,27.3,75.7,1000.0,338.4,1.8,4.0,343.8,0.01,22.7,26.0,"18:21:28",1
"22/08/18","18:40",0.0,27.1,77.3,1000.0,326.8,1.6,2.4,351.6,0.00,22.8,26.0,"18:31:20",1
"22/08/18","18:50",0.0,26.8,79.3,1000.5,310.8,1.1,1.9,304.6,0.00,23.0,26.0,"18:48:16",1
"22/08/18","19:00",0.0,26.5,81.4,1000.0,341.8,1.2,1.9,334.4,0.00,23.1,26.0,"18:51:44",1
"22/08/18","19:10",0.0,25.8,83.2,1000.3,348.9,1.0,1.8,350.0,0.00,22.8,25.9,"19:00:08",1
"22/08/18","19:20",0.0,25.4,84.5,1000.3,297.4,1.0,2.4,326.6,0.00,22.6,26.0,"19:10:32",1
"22/08/18","19:30",0.0,25.0,85.6,1001.0,337.6,1.3,2.2,331.3,0.00,22.5,25.9,"19:28:16",1
"22/08/18","19:40",0.0,24.8,86.6,1001.0,345.6,1.3,2.5,348.0,0.00,22.5,26.0,"19:30:32",1
"22/08/18","19:50",0.0,24.5,87.0,1000.8,339.6,1.3,2.1,343.0,0.00,22.2,25.9,"19:42:32",1
"22/08/18","20:00",0.0,24.6,87.3,1001.5,319.2,1.3,2.5,336.1,0.00,22.4,25.8,"19:58:40",1
"22/08/18","20:10",0.0,24.6,87.2,1001.7,332.2,1.7,2.7,336.2,0.00,22.4,25.8,"20:03:20",1
"22/08/18","20:20",0.0,24.7,86.7,1001.5,343.8,1.6,2.7,22.4,0.00,22.4,25.9,"20:18:40",1
"22/08/18","20:30",0.0,24.9,86.0,1001.5,357.3,1.3,2.6,18.4,0.00,22.4,25.8,"20:22:40",1
"22/08/18","20:40",0.0,24.8,85.8,1001.7,337.8,1.6,2.7,346.9,0.00,22.3,25.7,"20:31:52",1
"22/08/18","20:50",0.0,24.5,86.3,1001.5,328.5,1.6,2.7,337.3,0.00,22.1,25.8,"20:44:56",1
"22/08/18","21:00",0.0,24.3,87.0,1002.2,318.9,1.5,2.7,347.3,0.00,22.0,25.8,"20:51:20",1
"22/08/18","21:10",0.0,24.1,87.7,1001.9,319.7,1.6,3.1,324.4,0.00,22.0,26.0,"21:05:52",1
"22/08/18","21:20",0.0,23.9,88.2,1001.9,332.1,1.8,2.7,331.8,0.00,21.9,25.7,"21:14:48",1
"22/08/18","21:30",0.0,23.9,88.6,1001.7,334.5,1.5,2.5,345.4,0.00,21.9,25.8,"21:26:40",1
"22/08/18","21:40",0.0,23.7,89.1,1002.2,337.5,1.7,3.2,341.4,0.00,21.8,25.7,"21:31:36",1
"22/08/18","21:50",0.0,23.6,89.4,1001.7,334.8,1.5,2.4,341.5,0.00,21.8,25.7,"21:46:56",1
"22/08/18","22:00",0.0,23.4,89.8,1001.9,328.4,1.1,1.8,317.2,0.00,21.7,25.7,"21:59:36",1
"22/08/18","22:10",0.0,23.2,90.2,1002.2,325.1,1.0,2.0,322.1,0.00,21.5,25.7,"22:04:56",1
"22/08/18","22:20",0.0,23.1,90.4,1002.2,308.2,0.7,1.2,345.1,0.00,21.5,25.7,"22:11:12",1
"22/08/18","22:30",0.0,22.9,90.7,1002.2,310.8,0.8,1.2,309.6,0.00,21.3,25.8,"22:20:56",1
"22/08/18","22:40",0.0,22.9,90.9,1002.2,314.6,1.0,1.2,319.6,0.00,21.4,25.8,"22:30:56",1
"22/08/18","22:50",0.0,22.8,91.2,1002.2,335.2,0.8,1.3,340.4,0.00,21.3,25.6,"22:45:04",1
"22/08/18","23:00",0.0,22.8,91.6,1001.9,319.9,0.8,1.9,327.7,0.00,21.4,25.4,"22:50:08",1
"22/08/18","23:10",0.0,22.8,91.8,1001.9,330.2,1.1,1.7,344.1,0.00,21.4,25.7,"23:00:56",1
"22/08/18","23:20",0.0,22.9,92.1,1002.2,326.0,1.2,2.0,343.0,0.00,21.6,25.5,"23:14:56",1
"22/08/18","23:30",0.0,23.0,92.2,1002.2,291.7,1.0,2.1,327.0,0.00,21.7,25.6,"23:20:32",1
"22/08/18","23:40",0.0,22.9,92.3,1001.9,210.0,0.2,0.8,216.8,0.00,21.6,25.7,"23:38:48",1
"22/08/18","23:50",0.0,22.8,92.5,1001.9,286.6,0.8,1.6,337.3,0.00,21.6,25.5,"23:45:44",1
"22/08/18","24:00",0.0,22.8,92.7,1002.2,331.7,1.2,1.8,343.0,0.00,21.6,25.6,"23:52:24",1
